Погода Тегюльтя-Терде

Погода Тегюльтя-Терде : погода сейчас, прогноз погоды и архив. Всё, что Вы хотите узнать о погоде Тегюльтя-Терде!

Поиск расширенной информации на нашем сайте:

Другие новости

Новости СМИ2

Главная страница сайта

Новости сайта

03.07.2017

Напоминаем, что на нашем специализированном сайте Метеоцентр.Азия вы можете получить высокодетализированные автоматические прогнозы погоды по пунктам России, СНГ и мира в авиационном формате (включающие направление и скорость ветра, видимость, явления погоды, количество и форму облачности, нижнюю и верхнюю границу облачности).


Погода Тегюльтя-Терде - сегодня

Время (UTC), дата Ветер
(°,м/с) 
Видим.   Явления Облачность Т
(°С)
Тd
(°С)
f(%) Тe
(°С)
Pmin
(гПа)
dP
(гПа)
Po
(мм)
O2
(г/м3)
Тmin Tmax R s Состояние
почвы
06 26.07.17 290 (З) 20000 м    10/4 600 м средняя, верхняя 
[Sc|Ac trans|Ci fib]
+20.2 +8.6 47 +20  1005.8  -0.9  740  276           
09 26.07.17 270 (З) 20000 м    9/3 600 м средняя, верхняя 
[Sc|Ac trans|Ci fib]
+21.6 +7.6 40 +22  1005  -0.7  739  275           
12 26.07.17 тихо ()   20000 м    4/3 600 м верхняя 
[Sc|Ci fib]
+15.5 +12.8 84 +21  1005.8  0.4  739  279    +22       
15 26.07.17 тихо ()   20000 м    3/0 верхняя 
[Ci fib]
+7.9 +7 94 +8  1006.6  0.3  740  288           
18 26.07.17 270 (З) 20000 м    3/0 верхняя 
[Ci fib]
+3.5 +3.5 100 +4  1007.6  0.7  740  294           
21 26.07.17 тихо ()   20000 м    3/0 верхняя 
[Ci fib]
+2.8 +2.5 98 +3  1008.7  0.8  741  295           
00 27.07.17 тихо ()   20000 м    1/0 верхняя 
[Ci fib]
+13.3 +8.4 72 +13  1007.2  -0.5  740  283  +2.7        влажная 
03 27.07.17 190 (Ю) 20000 м    3/3 1000 м 
[Cu med, cong]
+23.3 +6.9 35 +23  1005.4  -1.1  739  273           
06 27.07.17 210 (ЮЗ) 20000 м    6/6 600 м 
[Cu med, cong]
+26.5 +9.5 34 +27  1004.2  -1.1  739  270           
09 27.07.17 240 (ЮЗ) 20000 м    6/3 600 м верхняя 
[Cu Sc|Ci fib]
+26.3 +11 38 +29  1003.7  -0.5  738  269           
12 27.07.17 220 (ЮЗ) 20000 м    10/8 600 м верхняя 
[Sc|Ci fib]
+20.1 +11 56 +23  1005.6  1.5  739  275    +26.9       
15 27.07.17 тихо ()   20000 м    10/6 600 м верхняя 
[Sc|Ci fib]
+14.4 +13 91 +20  1005.9  739  280           
18 27.07.17 тихо ()   20000 м    10/3 600 м верхняя 
[Sc diur, vesp|Ci fib]
+10.8 +10 95 +12  1007.4  1.3  740  285           
21 27.07.17 тихо ()   20000 м  слаб. дождь  10/5 600 м средняя 
[Sc|As op]
+11.1 +10.3 95 +13  1008.2  0.6  741  285           
00 28.07.17 300 (СЗ) 20000 м  {дождь}  10/8 600 м средняя 
[Sc|Ac trans]
+17.7 +13.7 77 +26  1008.1  0.4  741  278  +10.3    0.3    сухая 
06 28.07.17 180 (Ю) 20000 м    8/4 1000 м верхняя 
[Cu hum|Ci]
+23.2 +14.2 57 +31  1006.7  -0.9  740  272           
09 28.07.17 020 (С) 20000 м  гроза без осадков  10/10 600 м кучево-дожд. 
[Cb cap]
+22.3 +14.5 61 +30  1005.8  -0.9  740  273           
12 28.07.17 230 (ЮЗ) 20000 м  {гроза, ливн. осадки}  6/3 600 м верхняя 
[Sc|Ci fib]
+16.3 +15.1 93 +27  1007.2  740  278    +23.6     
15 28.07.17 270 (З) 20000 м    8/5 600 м верхняя 
[Sc|Ci fib]
+11.9 +9.7 86 +13  1010.1  2.3  742  285           
18 28.07.17 290 (З) 20000 м    9/0 средняя 
[Ac trans]
+10.7 +9.5 92 +13  1011.8  1.7  743  287           
21 28.07.17 250 (З) 20000 м    1/0 верхняя 
[Ci fib]
+10.1 +6 76 +10  1014.5  2.5  745  289           
00 29.07.17 310 (СЗ) 20000 м    1/0 верхняя 
[Ci fib]
+12.9 +2.7 50 +12  1015.1  0.7  746  287  +10        влажная 
03 29.07.17 220 (ЮЗ) 20000 м    1/0 верхняя 
[Ci fib]
+16.4 +6.4 52 +17  1015  0.2  746  283           
06 29.07.17 320 (СЗ) 20000 м    ясно 
+18.8 +6.4 44 +20  1013.5  -1.3  745  280           
09 29.07.17 290 (З) 20000 м    1/0 верхняя 
[Ci fib]
+20.2 +7.3 43 +20  1012.6  -0.8  744  278           
Время (UTC), дата Ветер
(°,м/с) 
Видим.   Явления Облачность Т
(°С)
Тd
(°С)
f(%) Тe
(°С)
Pmin
(гПа)
dP
(гПа)
Po
(мм)
O2
(г/м3)
Тmin Tmax R s Состояние
почвы

Для получения пояснительной информации подведите курсор к названию столбца.

ПОГОДА Тегюльтя-Терде - архив

Всё, что Вы хотите узнать о погоде Тегюльтя-Терде - удобно и подробно!

Выберите нужную дату (начиная с 1 января 2015* года) и нажмите кнопку "Найти".
Будут отображены архивные сводки погоды по пункту Тегюльтя-Терде, начиная с указанной даты.


Отображать данные в формате CSV (для использования в таблицах Excel)


Внимание! Наш архив погоды предназначен исключительно для личного некоммерческого использования в познавательных целях. Если Вам необходимы официальные справки о состоянии погоды (для производственных, юридических, коммерческих и т.п. целей), обращайтесь в органы Росгидромета.

*Примечание: данная дата относится к архиву по метеостанциям СССР (Россия, СНГ, Балтия).
Архив по метеостанциям Зарубежной Европы и Азии (кроме Китая) хранится 10 дней, по другим регионам земного шара (Китай, Африка, Америка, Австралия, Океания) - 1 день.

Тегюльтя-Терде - район местоположения метеостанции


Название, широта, долгота, высота метеостанции:
Тегюльтя-Терде 60.2°ш. 130.2°д. 171 м над ур. моря [Российская Федерация]

Дополнительная информация

В oтличие oт бoльшинства пoгoдных сайтoв мы публикуем пoдрoбную метеoинфoрмацию в детальнoм прoфессиoнальнoм фoрмате.

Характеристики температуры и влажнoсти вoздуха измеряются на высoте 2 м в тени вдали oт зданий и деревьев.
Скoрoсть ветра измеряется на высoте 10 м (на урoвне рoста челoвека скoрoсть ветра ниже в 1.5-2 раза). Если метеoстанция нахoдится в гoрoде или в лесу, тo скoрoсть ветра занижена на 2-4 м/с пo сравнению с oткрытым местoм. Скoрoсть ветра над акватoриями крупных рек и oзёр, а также на вершинах хoлмoв на 2-5 м/с выше, чем в oбычных услoвиях.
Атмoсфернoе давление в разных тoчках местнoсти мoжет значительнo oтличаться oт давления на метеoстанции, в зависимoсти oт услoвий рельефа (при пoдъёме на 10 м давление пoнижается примернo на 1 мм рт.ст.).